Date String (YYYY-MM-DD hh:mm:ss) UTC,Instrument flags,Ambient pressure (hPa),Sample flow (lpm),Bypass flow (lpm),Sample temperature (°C),Ambient temperature (°C),ASC tube jacket temperature (°C),LED temperature (°C),Box temperature (°C),Sample RH (%),Span deviation,Mass concentration (μg/m³),Mass concentration (μg/m³),Mass concentration (μg/m³)
DateTimeUTC,F1_M11,P_M11,Q1_M11,Q2_M11,T1_M11,T2_M11,T3_M11,T4_M11,T5_M11,U1_M11,ZSPAN_M11,X0_M11,X2_M11,X1_M11
2023-03-03 18:00:00,,0814.8,5.01,0.00,22.4,20.4,00.0,31.3,24.1,12.6,-001.8,0015.69,0010.21,0009.64
2023-03-03 18:01:00,,0814.6,5.01,0.00,22.4,20.4,00.0,31.3,24.1,13.0,-001.5,0015.37,0010.04,0009.48
2023-03-03 18:02:00,,0814.6,5.00,0.00,22.4,20.4,00.0,31.2,24.1,13.4,-001.4,0015.13,0009.89,0009.36
2023-03-03 18:03:00,,0814.6,5.00,0.00,22.3,20.4,00.0,31.2,24.0,13.8,-001.0,0015.32,0009.88,0009.37
2023-03-03 18:04:00,,0814.5,5.00,0.00,22.3,20.5,00.0,31.2,24.0,14.2,-001.0,0015.35,0010.06,0009.54
2023-03-03 18:05:00,,0814.7,5.00,0.00,22.3,20.4,00.0,31.2,24.0,14.4,-001.3,0015.58,0010.35,0009.81
2023-03-03 18:06:00,,0814.4,5.00,0.00,22.3,20.4,00.0,31.2,23.9,14.4,-001.6,0015.96,0010.67,0010.10
2023-03-03 18:07:00,,0814.4,4.99,0.00,22.2,20.5,00.0,31.1,23.9,14.5,-001.5,0015.61,0010.94,0010.36
2023-03-03 18:08:00,,0814.4,5.01,0.00,22.3,20.5,00.0,31.1,24.0,14.6,-001.4,0015.73,0011.23,0010.65
2023-03-03 18:09:00,,0814.3,4.97,0.00,22.2,20.5,00.0,31.1,24.0,14.5,-001.4,0016.65,0011.54,0010.98
2023-03-03 18:10:00,,0814.3,4.98,0.00,22.2,20.5,00.0,31.1,23.9,14.6,-001.2,0017.23,0011.86,0011.32
2023-03-03 18:11:00,,0814.4,5.01,0.00,22.2,20.5,00.0,31.1,24.0,14.7,-001.2,0017.71,0012.24,0011.68
2023-03-03 18:12:00,,0814.4,5.02,0.00,22.2,20.5,00.0,31.1,23.9,14.5,-001.3,0018.13,0012.63,0012.04
2023-03-03 18:13:00,,0814.4,5.01,0.00,22.2,21.0,00.0,31.0,24.0,14.2,-001.3,0018.34,0012.87,0012.27
2023-03-03 18:14:00,,0814.3,4.97,0.00,22.3,22.3,00.0,31.1,24.3,13.9,-001.6,0018.16,0012.94,0012.35
2023-03-03 18:15:00,,0814.3,5.00,0.00,22.5,22.8,00.0,31.1,24.5,13.6,-001.7,0018.05,0012.83,0012.27
2023-03-03 18:16:00,,0814.4,5.00,0.00,22.5,22.5,00.0,31.1,24.5,13.5,-001.7,0017.90,0012.69,0012.11
2023-03-03 18:17:00,,0814.5,4.99,0.00,22.6,22.3,00.0,31.2,24.5,13.6,-001.6,0017.75,0012.55,0011.98
2023-03-03 18:18:00,,0814.2,5.00,0.00,22.6,22.1,00.0,31.2,24.5,13.8,-001.6,0017.61,0012.43,0011.86
2023-03-03 18:19:00,,0814.2,5.00,0.00,22.6,21.8,00.0,31.2,24.5,13.6,-001.6,0017.43,0012.32,0011.76
2023-03-03 18:20:00,,0814.4,5.02,0.00,22.6,21.7,00.0,31.2,24.4,13.6,-001.4,0016.77,0012.25,0011.67
2023-03-03 18:21:00,,0814.4,5.00,0.00,22.6,21.5,00.0,31.2,24.4,13.4,-001.4,0016.41,0012.12,0011.55
2023-03-03 18:22:00,,0814.2,5.01,0.00,22.6,21.4,00.0,31.3,24.3,13.3,-001.3,0016.25,0011.90,0011.36
2023-03-03 18:23:00,,0814.1,4.99,0.00,22.6,21.3,00.0,31.3,24.3,13.3,-001.4,0016.16,0011.68,0011.15
2023-03-03 18:24:00,,0814.2,5.00,0.00,22.6,21.1,00.0,31.3,24.3,13.1,-001.5,0016.11,0011.56,0011.02
2023-03-03 18:25:00,,0814.4,5.00,0.00,22.5,21.0,00.0,31.3,24.3,13.0,-001.2,0016.04,0011.48,0010.92
2023-03-03 18:26:00,,0814.2,4.99,0.00,22.5,21.0,00.0,31.3,24.3,12.9,-001.0,0015.89,0011.42,0010.84
2023-03-03 18:27:00,,0814.5,5.00,0.00,22.5,21.0,00.0,31.3,24.3,12.8,-001.1,0015.74,0011.33,0010.76
2023-03-03 18:28:00,,0814.5,5.01,0.00,22.5,21.0,00.0,31.3,24.3,12.5,-001.0,0015.49,0011.17,0010.65
2023-03-03 18:29:00,,0814.6,5.00,0.00,22.5,21.0,00.0,31.3,24.3,12.7,-001.1,0015.41,0010.97,0010.48
2023-03-03 18:30:00,,0814.3,5.01,0.00,22.5,21.1,00.0,31.3,24.3,12.6,-001.2,0015.29,0010.76,0010.28
2023-03-03 18:31:00,,0814.4,5.00,0.00,22.5,21.1,00.0,31.3,24.3,12.2,-001.4,0014.88,0010.47,0010.02
2023-03-03 18:32:00,,0814.2,5.00,0.00,22.6,21.2,00.0,31.3,24.4,12.0,-001.5,0014.54,0010.20,0009.76
2023-03-03 18:33:00,,0814.1,4.99,0.00,22.6,21.2,00.0,31.3,24.4,12.2,-001.9,0014.18,0009.98,0009.56
2023-03-03 18:34:00,,0814.1,5.00,0.00,22.6,21.3,00.0,31.3,24.4,12.4,-001.8,0014.23,0009.83,0009.43
2023-03-03 18:35:00,,0814.0,5.00,0.00,22.6,21.3,00.0,31.3,24.4,12.2,-001.6,0013.97,0009.65,0009.28
2023-03-03 18:36:00,,0814.0,5.00,0.00,22.6,21.3,00.0,31.3,24.4,12.5,-001.7,0013.82,0009.49,0009.11
2023-03-03 18:37:00,,0814.0,5.01,0.00,22.6,21.3,00.0,31.3,24.4,12.1,-001.9,0013.65,0009.30,0008.95
2023-03-03 18:38:00,,0814.0,4.99,0.00,22.6,21.2,00.0,31.3,24.4,12.2,-001.8,0013.52,0009.11,0008.79
2023-03-03 18:39:00,,0813.9,5.00,0.00,22.6,21.2,00.0,31.3,24.5,12.1,-001.5,0013.69,0009.02,0008.68
2023-03-03 18:40:00,,0814.0,5.00,0.00,22.6,21.2,00.0,31.3,24.5,12.3,-001.6,0013.82,0009.06,0008.65
2023-03-03 18:41:00,,0814.0,4.99,0.00,22.6,21.2,00.0,31.3,24.5,12.3,-001.6,0014.09,0009.09,0008.64
2023-03-03 18:42:00,,0814.0,5.01,0.00,22.6,21.3,00.0,31.3,24.5,12.4,-001.6,0014.19,0009.13,0008.65
2023-03-03 18:43:00,,0814.1,5.00,0.00,22.6,21.2,00.0,31.3,24.5,12.6,-001.5,0014.20,0009.13,0008.68
2023-03-03 18:44:00,,0814.0,5.00,0.00,22.6,21.2,00.0,31.3,24.5,12.2,-001.5,0014.27,0009.15,0008.68
2023-03-03 18:45:00,,0814.1,4.99,0.00,22.6,21.2,00.0,31.3,24.5,11.7,-001.5,0013.82,0009.08,0008.61
2023-03-03 18:46:00,,0814.1,5.02,0.00,22.6,21.1,00.0,31.3,24.5,10.9,-001.4,0013.66,0008.88,0008.40
2023-03-03 18:47:00,,0814.1,5.01,0.00,22.6,21.1,00.0,31.3,24.4,10.7,-001.2,0013.30,0008.63,0008.14
2023-03-03 18:48:00,,0813.9,5.00,0.00,22.6,21.0,00.0,31.3,24.4,10.9,-001.2,0012.96,0008.37,0007.90
2023-03-03 18:49:00,,0814.3,5.00,0.00,22.6,21.0,00.0,31.3,24.4,11.1,-001.3,0012.86,0008.22,0007.70
2023-03-03 18:50:00,,0813.9,5.00,0.00,22.6,21.0,00.0,31.3,24.4,11.0,-001.4,0012.37,0008.02,0007.52
2023-03-03 18:51:00,,0813.9,5.00,0.00,22.6,21.0,00.0,31.3,24.4,11.1,-000.9,0011.77,0007.71,0007.30
2023-03-03 18:52:00,,0813.9,4.99,0.00,22.6,21.0,00.0,31.3,24.4,11.1,-000.7,0011.14,0007.49,0007.09
2023-03-03 18:53:00,,0813.8,4.99,0.00,22.6,21.0,00.0,31.3,24.4,11.2,-001.1,0010.92,0007.29,0006.91
2023-03-03 18:54:00,,0814.2,4.97,0.00,22.6,21.1,00.0,31.3,24.4,11.3,-001.2,0011.03,0007.15,0006.75
2023-03-03 18:55:00,,0814.2,5.00,0.00,22.6,21.2,00.0,31.3,24.5,11.4,-001.2,0011.24,0007.02,0006.61
2023-03-03 18:56:00,,0814.2,5.03,0.00,22.6,21.2,00.0,31.3,24.5,11.5,-001.2,0011.19,0006.97,0006.54
2023-03-03 18:57:00,,0814.1,4.96,0.00,22.6,21.2,00.0,31.4,24.5,11.6,-001.4,0011.07,0007.02,0006.64
2023-03-03 18:58:00,,0814.1,5.00,0.00,22.6,21.1,00.0,31.3,24.4,11.6,-001.8,0011.41,0007.18,0006.81
2023-03-03 18:59:00,,0814.2,5.00,0.00,22.6,21.1,00.0,31.3,24.4,11.6,-001.9,0011.70,0007.35,0006.96
